TIME,DELAY(SENSOR),PRES,T(CTD),SAL,OXYGEN,RAWTEMP,T(OPTODE),TCPHASE,FLUOR,BETA(BETA700),BETA(BETA412),BETA(BETA440),CDOM,C(CSC),ED(ED411.90),ED(ED443.80),ED(ED489.40),ED(ED554.70),LU(LU412.20),LU(LU443.80),LU(LU489.40),LU(LU555.00),COMP,TILTX,TILTX(TILTY),CHECK
1379948881,5809,497.2300109863281000,17.7805995941162100,36.5045013427734400,212.6596984863281200,162.6358032226562500,17.7752609252929700,31.9777202606201170,147,4130,48,53,47,8766,2146959734,2147512859,2147274422,2147451565,2147074870,2146957897,2147653668,2147127305,672,-1,8,55623
1379949002,5806,486.3999938964844000,17.8607006072998050,36.5150985717773440,212.6921997070312500,160.0251007080078000,17.8540802001953120,31.9401206970214840,149,4130,48,53,47,8767,2146958354,2147511963,2147269805,2147454363,2147070537,2146957174,2147657188,2147131382,3506,-1,8,3695
1379949123,5803,475.2999877929687500,17.9206008911132800,36.5242996215820300,213.1860961914062500,157.8912048339843800,17.9185104370117200,31.8840808868408200,148,4130,48,52,47,8766,2146962669,2147516397,2147270235,2147449133,2147070829,2146953517,2147656941,2147127250,2190,-1,8,572
1379949247,5805,463.9599914550781000,17.9696006774902340,36.5318984985351560,214.2557983398437500,156.3180999755859400,17.9660091400146500,31.8047008514404300,148,4130,47,54,47,8766,2146959817,2147513846,2147274413,2147451730,2147076041,2146955245,2147653686,2147126765,1082,-1,8,10096
1379949357,5806,453.5100097656250000,18.0090007781982420,36.5337982177734400,214.5164031982422000,154.9508972167968800,18.0072994232177730,31.7721900939941400,149,4130,48,52,47,8766,2146959634,2147515922,2147273216,2147447954,2147077211,2146954304,2147653933,2147129782,366,-1,8,64687
1379949478,5806,441.9899902343750000,18.0550003051757800,36.5399017333984400,216.1051940917968800,153.5196075439453000,18.0505199432373050,31.6674804687500000,147,4130,48,52,49,8764,2146963026,2147514788,2147271369,2147449197,2147079753,2146953846,2147654893,2147127030,2730,-1,8,39014
1379949590,5804,431.2799987792969000,18.0991992950439450,36.5438003540039060,216.2630004882812500,152.0426025390625000,18.0951309204101560,31.6388702392578120,148,4130,49,53,48,8765,2146962358,2147518546,2147270372,2147446884,2147067172,2146955712,2147653101,2147127625,2813,-1,8,11683
1379949711,5806,419.5499877929687500,18.1478996276855470,36.5486984252929700,218.1392059326172000,150.4671020507812500,18.1427307128906250,31.5182590484619140,149,4130,49,53,48,8767,2146963273,2147517531,2147269403,2147450230,2147076662,2146955163,2147653824,2147126080,2378,-1,8,27457
1379949835,5804,407.6600036621094000,18.2038993835449220,36.5508995056152340,218.7362976074218800,148.4187011718750000,18.2046108245849600,31.4592990875244140,147,4130,47,52,46,8769,2146959899,2147515794,2147271661,2147449526,2147074340,2146958966,2147656402,2147128091,1917,-1,8,52796
1379949945,5803,397.3399963378906000,18.2420997619628900,36.5519981384277340,220.8522949218750000,147.3722991943359400,18.2362308502197270,31.3347492218017580,148,4130,48,53,46,8768,2146961618,2147517421,2147269604,2147443931,2147070089,2146959021,2147652617,2147127506,1467,-1,8,20181
1379950066,5809,386.2300109863281000,18.2754001617431640,36.5518989562988300,223.6786956787109400,146.2621002197265600,18.2697792053222660,31.1745796203613280,147,4130,49,53,47,8770,2146959369,2147512484,2147268928,2147446162,2147078043,2146960676,2147655396,2147129481,798,-1,8,12519
1379950190,5807,375.0599975585937500,18.3010005950927730,36.5514984130859400,226.6743011474609400,145.3834075927734400,18.2963294982910160,31.0111808776855470,148,4130,47,52,46,8771,2146960155,2147513234,2147271625,2147450048,2147078756,2146958966,2147650944,2147127597,202,-1,8,62396
1379950311,5806,364.3999938964844000,18.3293991088867200,36.5500984191894500,229.2776947021484400,144.4658050537109400,18.3240604400634770,30.8691101074218750,148,4130,47,53,46,8770,2146961078,2147520512,2147269266,2147447634,2147074304,2146962953,2147649545,2147128667,2902,-1,8,15606
1379950435,5805,353.8800048828125000,18.3595008850097660,36.5513992309570300,231.9611968994140600,143.4129943847656200,18.3558807373046880,30.7231597900390620,147,4130,48,53,46,8771,2146959899,2147513645,2147267885,2147450002,2147077028,2146952694,2147650706,2147128192,2563,-1,8,6343
1379950567,5803,342.9200134277344000,18.3931999206542970,36.5518989562988300,234.5583953857422000,142.3105010986328000,18.3892002105712900,30.5824394226074220,147,4130,47,52,46,8772,2146957220,2147514313,2147273700,2147447963,2147074221,2146955126,2147652617,2147130258,2142,-1,8,33208
1379950710,5807,331.1900024414062500,18.4193992614746100,36.5539016723632800,235.4488067626953000,141.4788055419922000,18.4143390655517580,30.5285491943359380,147,4130,49,53,46,8771,2146959369,2147515090,2147270912,2147448676,2147077147,2146959369,2147648896,2147124251,1518,-1,8,5043
1379950844,5808,320.3099975585937500,18.4456996917724600,36.5559005737304700,235.8609924316406200,140.5720977783203000,18.4417495727539060,30.4967708587646500,147,4130,48,52,47,8773,2146957970,2147516589,2147271314,2147448969,2147073718,2146950016,2147646774,2147128512,1096,-1,8,7681
1379950976,5803,309.7699890136719000,18.4659004211425780,36.5567016601562500,236.0755004882812500,139.9048004150390600,18.4619197845459000,30.4777202606201170,147,4130,48,53,47,8771,2146958546,2147514212,2147268617,2147449526,2147073782,2146958089,2147654290,2147129042,440,-1,8,15906
1379951111,5806,298.6700134277344000,18.4890003204345700,36.5556983947753900,235.6768035888672000,139.2042999267578000,18.4831008911132800,30.4875602722167970,148,4130,48,54,47,8773,2146959698,2147517970,2147267309,2147447844,2147075538,2146958528,2147652790,2147127798,3463,-1,8,48716
1379951243,5808,287.7399902343750000,18.5293998718261720,36.5593986511230500,234.9633026123047000,137.8388061523437500,18.5243892669677730,30.5038795471191400,148,4130,47,53,46,8772,2146962112,2147518902,2147269403,2147450102,2147075126,2146959433,2147648960,2147129929,2758,-1,8,13698
1379951378,5805,276.8399963378906000,18.5492992401123050,36.5601997375488300,233.7686004638672000,137.1791992187500000,18.5443305969238280,30.5522193908691400,147,4130,48,53,46,8774,2146958656,2147518582,2147271442,2147446098,2147079405,2146959744,2147656146,2147127606,2024,-1,8,34852
1379951521,5805,265.1600036621094000,18.6126995086669920,36.5646018981933600,232.1665039062500000,134.8941955566406200,18.6134300231933600,30.5997791290283200,148,4130,47,52,46,8774,2146963428,2147515437,2147268836,2147446354,2147076736,2146965110,2147655862,2147127597,1494,-1,8,44099
1379951653,5808,254.1600036621093800,18.6520004272460940,36.5665016174316400,230.3482055664062500,133.7693939208984400,18.6474494934082030,30.6734790802001950,147,4130,48,53,47,8770,2146959506,2147516672,2147268836,2147447515,2147077001,2146962733,2147670912,2147130496,418,-1,8,19618
1379951776,5807,243.7799987792968800,18.6821994781494140,36.5666999816894500,229.6477050781250000,132.8139038085937500,18.6763496398925780,30.6951599121093750,147,4130,48,53,47,8773,2146961874,2147517220,2147270061,2147444196,2147073380,2146968164,2147676096,2147127268,2793,-1,8,14574
1379951908,5806,232.8300018310547000,18.7511005401611330,36.5691986083984400,229.6640014648437500,130.5957946777343800,18.7434501647949220,30.6649494171142580,146,4130,49,52,46,8773,2146957778,2147518747,2147268306,2147445997,2147073344,2146971236,2147693961,2147131126,2986,-1,8,37464
1379952054,5805,221.3399963378906200,18.8411998748779300,36.5718994140625000,228.4288024902343800,127.2807006835937500,18.8437595367431640,30.6820106506347660,149,4130,48,53,47,8769,2146960173,2147516333,2147268891,2147446482,2147074642,2146983844,2147726811,2147132498,3278,-2,8,5919
1379952197,5807,210.6000061035156200,18.9664001464843750,36.5784988403320300,227.9306945800781200,123.1266021728515600,18.9694900512695300,30.6514205932617200,146,4130,47,53,48,8768,2146959981,2147518710,2147272740,2147447945,2147083053,2147021083,2147798793,2147135634,3178,-1,8,2493
1379952340,5803,199.9700012207031200,19.1287994384765620,36.5797004699707000,228.9763031005859400,118.0031967163086000,19.1246299743652340,30.5317592620849600,147,4130,48,54,46,8767,2146960694,2147518747,2147270930,2147442870,2147083739,2147025636,2147818349,2147140470,2319,-1,8,3630
1379952425,5809,192.7400054931640600,19.2409992218017580,36.5844993591308600,229.3836975097656200,114.3771972656250000,19.2344703674316400,30.4640693664550780,146,4130,48,52,47,8766,2146958738,2147517211,2147270518,2147442678,2147084461,2147023881,2147795529,2147139172,2230,-1,8,24078
1379952492,5805,186.6000061035156200,19.4164009094238280,36.5918006896972660,230.5211029052734400,108.5176010131836000,19.4120502471923830,30.3314094543457030,146,4130,48,53,46,8766,2146958418,2147517924,2147270957,2147442953,2147086262,2147036461,2147822034,2147140178,2962,-1,8,21296
1379952547,5806,181.7500000000000000,19.5606002807617200,36.6041984558105500,229.9508972167968800,103.6939010620117200,19.5583190917968750,30.2957992553710940,149,4130,48,53,47,8766,2146959241,2147520292,2147270454,2147444160,2147088612,2147043364,2147830683,2147136438,2820,-2,8,34901
1379952602,5807,177.0299987792968800,19.7317008972167970,36.6024017333984400,231.1595001220703000,97.9648895263671900,19.7321300506591800,30.1619205474853500,147,4130,48,52,47,8763,2146957339,2147518317,2147271350,2147443913,2147094299,2147084626,2147905764,2147144768,2719,-1,8,64807
1379952682,5806,170.6399993896484400,19.9736995697021500,36.6467018127441400,224.8851013183593800,89.3645935058593800,19.9932594299316400,30.3574790954589840,146,4130,47,53,46,8763,2146960731,2147517760,2147275702,2147440155,2147096850,2147118582,2147963812,2147143725,3230,-2,8,46566
1379952737,5804,166.6900024414062500,20.1319007873535160,36.6781005859375000,212.7646026611328000,84.8138427734375000,20.1315402984619140,30.9225292205810550,147,4130,47,52,47,8768,2146958564,2147519506,2147274505,2147443794,2147099044,2147126976,2147957787,2147148086,3187,-2,8,65474
1379952792,5808,162.7599945068359400,20.2059993743896500,36.6880989074707000,201.3869934082031200,82.6485214233398400,20.1973590850830080,31.5198898315429700,144,4130,48,53,47,8768,2146960192,2147522139,2147275693,2147440292,2147103744,2147154166,2148004553,2147152795,2754,-1,9,33283
1379952847,5810,158.7599945068359400,20.2478008270263670,36.6949005126953100,193.3887939453125000,81.1741027832031200,20.2421894073486330,31.9658908843994140,146,4130,48,54,47,8766,2146961453,2147520749,2147281408,2147440457,2147115273,2147210925,2148106733,2147154139,2689,-1,8,41974
1379952902,5806,154.7100067138672000,20.3071002960205080,36.7042999267578100,186.2151031494140600,79.1914062500000000,20.3024902343750000,32.3767395019531250,146,4130,49,54,46,8763,2146958701,2147525211,2147288941,2147440466,2147135588,2147317750,2148300644,2147168027,2501,-1,8,24285
1379952987,5804,148.7700042724609400,20.3267993927001950,36.7033996582031250,180.1372070312500000,78.5014038085937500,20.3234691619873050,32.7539100646972660,147,4130,48,54,47,8761,2146961773,2147526262,2147288594,2147437357,2147145097,2147357220,2148341924,2147175094,2045,-2,8,60476
1379953042,5806,145.3399963378906200,20.3593006134033200,36.7072982788085940,178.0086975097656200,77.5547027587890600,20.3522701263427730,32.8797607421875000,146,4130,47,53,47,8760,2146964004,2147527204,2147289947,2147438107,2147159734,2147409910,2148429897,2147178752,1619,-1,9,36743
1379953108,5803,141.2500000000000000,20.4297008514404300,36.7156982421875000,175.5278930664062500,75.3462066650390600,20.4194698333740230,33.0134010314941400,148,4130,48,53,46,8755,2146965851,2147544704,2147317238,2147442176,2147235401,2147815725,2149142692,2147225700,1409,-1,8,32144
1379953174,5805,137.2400054931640600,20.4456005096435550,36.7174987792968750,174.0254058837890600,74.1976089477539000,20.4544200897216800,33.0987892150878900,146,4130,47,54,46,8753,2146964022,2147538496,2147311990,2147438637,2147241728,2147800365,2149051693,2147217179,1031,-1,8,48843
1379953240,5808,133.4499969482422000,20.5021991729736330,36.7195014953613300,173.4102935791015600,72.8609619140625000,20.4951000213623050,33.1218414306640600,146,4130,48,52,48,8749,2146964836,2147547904,2147329846,2147439954,2147320320,2148116233,2149575780,2147253714,872,-1,8,50077
1379953325,5808,129.3800048828125000,20.5456008911132800,36.7256011962890600,171.3984985351562500,71.3972473144531200,20.5396595001220700,33.2388381958007800,147,4130,48,52,46,8746,2146965229,2147536832,2147314267,2147440996,2147275666,2147805120,2148981522,2147219830,424,-1,8,50388
1379953424,5807,126.1900024414062500,20.5970001220703120,36.7277984619140600,170.9382019042968800,69.6621093750000000,20.5924892425537100,33.2466392517089840,147,4130,47,52,47,8743,2146969600,2147554770,2147334345,2147438180,2147403565,2148284955,2149744118,2147271387,301,-1,8,3312
1379953578,5807,122.2099990844726600,20.6676998138427730,36.7267990112304700,172.6054992675781200,67.3732604980468800,20.6622009277343750,33.1005706787109400,149,4130,47,53,46,8739,2146976384,2147564160,2147357403,2147441801,2147540928,2148699803,2150352365,2147315190,638,-1,8,36461
1379953714,5806,117.9400024414062500,20.7166996002197270,36.7267990112304700,178.7785034179687500,65.8099288940429700,20.7098293304443360,32.6682510375976560,148,4130,48,52,46,8738,2146981787,2147579291,2147384484,2147438957,2147733741,2149212745,2151069549,2147377353,635,-2,8,12064
1379953813,5807,113.8499984741211000,20.7583999633789060,36.7260017395019500,183.1607971191406200,64.3068771362304700,20.7556304931640620,32.3656616210937500,149,4130,47,53,47,8732,2146984704,2147574409,2147361993,2147438765,2147741394,2148979328,2150574701,2147350802,847,-1,8,58217
1379953912,5805,109.5800018310546900,20.7787990570068360,36.7061996459960940,189.8023071289062500,63.4841003417968750,20.7807006835937500,31.9426994323730470,149,4130,47,52,46,8728,2146994121,2147604745,2147416228,2147441353,2148159616,2150038710,2152031488,2147477266,994,-1,8,53426
1379953997,5807,105.5299987792968800,20.8882007598876950,36.6831016540527340,198.2209930419922000,60.2121810913085940,20.8804492950439450,31.4010295867919920,149,4130,48,52,46,8725,2146991058,2147587968,2147378578,2147438089,2148021065,2149403620,2150948260,2147405156,1260,-1,9,54557
1379954074,5801,101.4700012207031200,20.8987007141113280,36.6221008300781250,215.8769989013672000,59.3461303710937500,20.9068508148193360,30.4236392974853500,148,4130,48,53,47,8728,2147010825,2147619894,2147420790,2147436406,2148471286,2150348278,2152126381,2147503040,1373,-2,9,1488
1379954140,5805,98.2699966430664000,21.0205993652343750,36.6251983642578100,231.0935974121093800,55.8038406372070300,21.0149002075195300,29.6182899475097660,149,4130,48,53,47,8728,2147009344,2147617444,2147415195,2147440118,2148481572,2150188644,2151739062,2147480054,1255,-1,9,10427
1379954195,5807,95.7600021362304700,21.2425994873046880,36.6356010437011700,241.7866973876953000,49.3971786499023440,21.2104606628417970,29.0387401580810550,148,4130,47,53,47,8725,2147034624,2147654189,2147472219,2147443757,2149208466,2151694089,2153564507,2147643940,889,-1,8,49002
1379954250,5805,93.5199966430664000,21.3097991943359380,36.6228981018066400,249.4757995605468800,46.8860702514648440,21.2871608734130860,28.6655006408691400,148,4130,47,53,47,8726,2147025974,2147634422,2147433892,2147440969,2148897700,2150826459,2152341284,2147539867,1098,-1,9,50734
1379954307,5804,91.5899963378906200,21.3607006072998050,36.6259002685546900,253.2037048339843800,44.9787101745605500,21.3454399108886720,28.4805107116699220,148,4130,49,54,45,8719,2147026523,2147637156,2147433956,2147440685,2148991826,2150897773,2152333430,2147549284,1362,-2,9,12137
1379954362,5803,89.9800033569336000,21.4034996032714840,36.6263008117675800,255.0016937255859400,43.2073707580566400,21.3995704650878900,28.3817596435546880,148,4130,48,53,47,8714,2147030848,2147643072,2147440621,2147442185,2149150774,2151126747,2152559963,2147574537,1393,-2,9,21534
1379954428,5804,88.1900024414062500,21.5732002258300780,36.6134986877441400,257.9544982910156000,38.1388282775878900,21.5545597076416000,28.1940307617187500,149,4130,47,53,47,8702,2147029577,2147638674,2147426422,2147441188,2149104859,2150891556,2152198930,2147547638,1038,-1,8,1172
1379954538,5804,86.6399993896484400,21.8533992767334000,36.6264991760253900,263.7721862792969000,30.4358501434326170,21.7903404235839840,27.8588199615478500,148,4130,48,54,47,8697,2147021513,2147615881,2147401014,2147435830,2148827730,2150231204,2151356754,2147477376,1304,-1,8,44397
1379954669,5806,84.3000030517578100,22.0370998382568360,36.6095008850097660,260.7347106933594000,22.8133106231689450,22.0239505767822270,27.8886108398437500,149,4130,47,52,46,8684,2147020534,2147610724,2147390564,2147436790,2148828406,2150063213,2151070738,2147457737,3175,-2,8,51554
1379954757,5804,82.2399978637695300,22.1863994598388670,36.5903015136718750,264.3424072265625000,18.4808998107910160,22.1568603515625000,27.6881904602050780,149,4130,48,53,46,8681,2147031460,2147624694,2147404534,2147436635,2149122477,2150456804,2151446299,2147504987,2317,-2,9,38943
1379954867,5806,80.8700027465820300,22.3038997650146500,36.5853004455566400,270.9509887695312500,14.2528400421142580,22.2866706848144530,27.3734207153320300,148,4130,48,53,48,8703,2147040539,2147635227,2147409572,2147434294,2149304219,2150712027,2151700425,2147532096,1963,-1,8,61186
1379954985,5808,78.8399963378906200,22.5273990631103500,36.5760002136230500,274.2398986816406000,7.3873848915100100,22.4976501464843750,27.1618309020996100,147,4130,48,52,47,8712,2147069385,2147671460,2147456329,2147441316,2150045924,2151830948,2152796653,2147647561,1703,-2,9,51757
1379955040,5805,77.0500030517578100,22.7956008911132800,36.5727996826171900,276.1158142089844000,-0.9335160255432129,22.7537097930908200,26.9888992309570300,147,4130,48,53,46,8719,2147091300,2147702070,2147490624,2147436626,2150666733,2152728411,2153638710,2147738020,1333,-2,9,40565
1379955117,5805,75.6699981689453100,23.0296001434326170,36.5680007934570300,285.0739135742187500,-6.9564251899719240,22.9393005371093750,26.5805702209472660,146,4130,50,53,46,8721,2147124772,2147745837,2147541046,2147442861,2151492827,2153972781,2154855954,2147866368,1082,-1,9,33373
1379955324,5804,73.2900009155273400,23.1942005157470700,36.5693016052246100,329.3888854980469000,-14.8012199401855470,23.1813507080078120,24.9916706085205080,148,4130,47,54,47,8716,2147363273,2148074825,2147941037,2147468205,2157945261,2164094317,2165143872,2148941485,792,-2,8,3343
1379955412,5807,71.4400024414062500,23.4146003723144530,36.5592002868652340,354.5206909179687500,-21.4190406799316400,23.3858394622802730,24.1662101745605470,146,4130,47,54,46,8724,2147387172,2148100443,2147947474,2147466413,2158468205,2164470893,2165111186,2148950930,841,-1,9,55280
1379955587,5803,69.5699996948242200,23.7859001159667970,36.5409011840820300,369.5179138183594000,-33.9914093017578100,23.7750797271728500,23.6044998168945300,148,4130,48,54,45,8704,2147549522,2148309522,2148154166,2147478875,2162768411,2170594523,2170597229,2149522870,1038,-2,8,43589
1379955741,5805,67.6900024414062500,24.1135005950927730,36.5218009948730500,426.8552856445312500,-43.9841194152832000,24.0851898193359380,22.0521697998046880,146,4130,48,54,47,8711,2147762742,2148557933,2148385371,2147492653,2167946139,2177839789,2176849307,2150173723,3514,-2,9,30466
1379955893,5805,64.9000015258789000,24.4689998626709000,36.5071983337402340,442.8457031250000000,-55.1660614013671900,24.4330196380615230,21.5651206970214840,146,4130,48,53,46,8708,2147928749,2148730898,2148518765,2147498496,2172220178,2183074358,2180789046,2150647643,3218,-1,8,63395
1379955959,5808,63.5699996948242200,24.4771995544433600,36.5084991455078100,476.3576965332031000,-56.3673706054687500,24.4704399108886720,20.8333702087402340,145,4130,48,54,47,8712,2147991414,2148799113,2148559881,2147498121,2173671652,2184640164,2181955053,2150768832,2739,-1,9,56336
1379956124,5807,61.5200004577636700,24.7212009429931640,36.4954986572265600,554.2838134765625000,-63.3377609252929700,24.6877708435058600,19.2744197845459000,145,4130,48,53,47,8711,2148333760,2149205165,2148994230,2147533577,2182525988,2196690825,2192476708,2151943808,3518,-1,9,20679
1379956242,5810,59.2400016784668000,24.8426990509033200,36.4880981445312500,567.0029907226562000,-67.8594894409179700,24.8289394378662100,19.0048103332519530,145,4130,48,53,46,8711,2148130249,2148887122,2148595117,2147505801,2177522605,2187550491,2182457536,2150952557,27,-1,8,33171
1379956330,5809,57.3199996948242200,25.0881996154785160,36.4575996398925800,550.5773925781250000,-73.7705764770507800,25.0137195587158200,19.2287006378173830,144,4130,48,54,45,8707,2148294692,2149040603,2148732406,2147520667,2181843849,2192277568,2185845686,2151387483,323,-1,9,13055
1379956560,5806,55.4399986267089840,25.6376991271972660,36.4314002990722660,508.1145935058594000,-92.2502136230468800,25.5931091308593750,19.8142204284667970,144,4130,49,52,46,8700,2147930788,2148571556,2148218450,2147480886,2171991680,2177585846,2172112740,2149860004,891,-1,9,28920
1379956840,5809,53.7900009155273440,26.1998004913330080,36.3863983154296900,520.7888793945312000,-109.4378967285156200,26.1344604492187500,19.3903198242187500,145,4130,47,52,46,8698,2148411885,2149075117,2148666989,2147514496,2184054683,2192334281,2183921508,2151261888,166,-1,8,24726
1379957203,5806,51.7200012207031250,26.6366004943847660,36.3442001342773440,560.4368896484375000,-124.0962982177734400,26.5981101989746100,18.5219192504882800,143,4130,48,51,46,8701,2148077842,2148661412,2148240960,2147477888,2174587300,2179297636,2172403373,2149945142,333,-2,9,24456
1379957446,5804,49.7299995422363300,26.7283000946044920,36.3660011291503900,430.4872131347656000,-128.2510070800781200,26.7298603057861330,21.0442104339599600,142,4130,49,53,46,8706,2147826313,2148381705,2147980809,2147452315,2167831899,2170877376,2165552859,2149176512,3229,-1,9,55781
1379957515,5809,47.6199989318847660,26.7129001617431640,36.3536987304687500,394.4538879394531000,-128.0260925292968800,26.7227306365966800,21.9041194915771500,140,4130,47,53,46,8708,2147914358,2148442550,2147997549,2147451803,2169835008,2172453750,2166234733,2149270509,2792,-2,9,50805
1379957572,5805,45.5200004577636700,26.6837997436523440,36.3372001647949200,373.0313110351562500,-126.8826980590820300,26.6864490509033200,22.4672794342041000,140,4130,47,52,46,8708,2147955053,2148458176,2147992429,2147455067,2171073874,2173165641,2166264603,2149294756,2305,-1,9,21729
1379957617,5805,43.8300018310546900,26.6443004608154300,36.3142013549804700,359.6061096191406000,-125.8165969848632800,26.6526393890380860,22.8421096801757800,141,4130,48,53,45,8704,2148133504,2148620187,2148112393,2147464640,2175794642,2178014774,2169583926,2149743872,2119,-2,9,12485
1379957674,5803,41.6899986267089840,26.6247005462646500,36.2961006164550800,351.7792968750000000,-125.0856018066406200,26.6294708251953120,23.0687599182128900,141,4130,47,52,46,8710,2148566774,2149033124,2148442706,2147496877,2187011273,2190054125,2178153920,2150849408,1494,-2,9,27341
1379957737,5806,39.2700004577636700,26.6186008453369140,36.2775001525878900,363.6163940429687500,-125.0196990966796900,26.6273803710937500,22.7410392761230470,140,4130,46,54,45,8709,2149197257,2149621595,2148912868,2147554925,2203626240,2207511798,2190257508,2152507264,998,-1,9,50970
1379957770,5808,37.5699996948242200,26.6009998321533200,36.2622985839843750,373.7167968750000000,-124.4135971069336000,26.6081600189209000,22.4766807556152340,139,4130,48,54,46,8710,2149628690,2150021421,2149214418,2147593517,2215476882,2219750966,2198621878,2153736768,1024,-1,9,44398
1379957803,5807,35.7799987792968750,26.5972003936767580,36.2607002258300800,386.6561889648437500,-124.3186035156250000,26.6051502227783200,22.1416893005371100,139,4130,48,53,45,8708,2150063780,2150409078,2149505106,2147632420,2227798107,2232126080,2206853741,2154989805,1025,-1,9,42650